This is the latest recevied weather packets stored in our database for station/object IU2PLZ-12. If no packets are shown the sender has not sent any weather packets the latest 10 day(s).
| Time | Temp. | Humidity | Pressure | Rain* | Wind** | Luminosity | Snow |
|---|---|---|---|---|---|---|---|
| 1777672010 | 15° C | 32% | 1007.9 hPa | - | - | - | - |
| 1777671110 | 15° C | 31% | 1007.9 hPa | - | - | - | - |
| 1777670210 | 15° C | 31% | 1008 hPa | - | - | - | - |
| 1777669309 | 15° C | 31% | 1007.9 hPa | - | - | - | - |
| 1777668409 | 15.56° C | 30% | 1007.8 hPa | - | - | - | - |
| 1777667509 | 16.11° C | 30% | 1007.7 hPa | - | - | - | - |
| 1777666609 | 16.11° C | 29% | 1007.7 hPa | - | - | - | - |
| 1777665708 | 16.67° C | 28% | 1007.5 hPa | - | - | - | - |
| 1777664808 | 17.22° C | 28% | 1007.4 hPa | - | - | - | - |
| 1777663908 | 17.78° C | 28% | 1007.1 hPa | - | - | - | - |
| 1777663008 | 18.33° C | 27% | 1007 hPa | - | - | - | - |
| 1777662108 | 18.89° C | 26% | 1006.9 hPa | - | - | - | - |
| 1777661207 | 19.44° C | 25% | 1006.8 hPa | - | - | - | - |
| 1777660307 | 20.56° C | 24% | 1006.8 hPa | - | - | - | - |
| 1777659407 | 22.22° C | 22% | 1006.6 hPa | - | - | - | - |
| 1777658507 | 25° C | 21% | 1006.5 hPa | - | - | - | - |
| 1777657607 | 26.67° C | 20% | 1006.5 hPa | - | - | - | - |
| 1777656706 | 28.33° C | 18% | 1006.6 hPa | - | - | - | - |
| 1777655806 | 31.11° C | 17% | 1006.5 hPa | - | - | - | - |
| 1777654906 | 32.22° C | 17% | 1006.5 hPa | - | - | - | - |
| 1777654305 | 34.44° C | 16% | 1006.5 hPa | - | - | - | - |
| 1777654006 | 34.44° C | 16% | 1006.5 hPa | - | - | - | - |
| 1777653106 | 33.33° C | 16% | 1006.7 hPa | - | - | - | - |
| 1777652205 | 33.89° C | 16% | 1006.7 hPa | - | - | - | - |
| 1777651305 | 34.44° C | 16% | 1006.8 hPa | - | - | - | - |
* Rain since midnight (hover to see other rain measurements)
** Current wind speed in m/s (hover to see current wind gust speed)